Terminal Aerodrome Forecast
Issued by NWS

Home | Current Version | Previous Version | Text Only | Print | Product List | Glossary On
Versions: 1 2 3 4 5 6 7 8 9 10 11 12
000
FTUS45 KABQ 311100
TAFROW
TAF
KROW 311126Z 3112/0112 VRB05KT P6SM SCT250
     FM311600 15010KT P6SM SCT250
     FM010000 18010KT P6SM SCT200=

USA.gov is the U.S. government's official web portal to all federal, state and local government web resources and services.